Weather History for Angleton, TX

Change the Weather History Date:

Friday, June 21, 2013

  Actual Average Record
Temperature  
Mean Temperature 82 °F -  
Max Temperature 91 °F 86 °F 96 °F (2008)
Min Temperature 72 °F 71 °F 64 °F (1998)
Cooling Degree Days 16    
Growing Degree Days 32 (Base 50)    
Moisture  
Dew Point 73 °F    
Average Humidity 76    
Maximum Humidity 100    
Minimum Humidity 52    
Precipitation  
Precipitation 0.00 in - - ()
Sea Level Pressure  
Sea Level Pressure 30.06 in    
Wind  
Wind Speed 4 mph (South)    
Max Wind Speed 12 mph    
Max Gust Speed 18 mph    
Visibility 9 miles    
Events      
Averages and records for this station are not official NWS values.
T = Trace of Precipitation, MM = Missing Value Source: NWS Daily Summary

Daily Weather History Graph

Daily Weather History Graph

Search for Another Location

Airport:

Trip Planner

Search our weather history database for the weather conditions in past years. The results will help you decide how hot, cold, wet, or windy it might be!

Date:

Astronomy

Jun. 21, 2013 Rise Set
Actual Time 6:23 AM CDT 8:23 PM CDT
Civil Twilight 5:56 AM CDT 8:51 PM CDT
Nautical Twilight 5:23 AM CDT 9:24 PM CDT
Astronomical Twilight 4:48 AM CDT 9:59 PM CDT
Moon 6:40 PM CDT (6/21) 4:33 AM CDT (6/21)
Length of Visible Light 14h 54m
Length of Day
14h 00m
Waxing Gibbous, 95% of the Moon is Illuminated
Jun 21
Waxing Gibbous
Jun 23
Full
Jun 29
Last Quarter
Jul 8
New
Jul 15
First Quarter

Hourly Weather History & Observations

Time (CDT) Temp. Heat Index Dew Point Humidity Pressure Visibility Wind Dir Wind Speed Gust Speed Precip Events Conditions
12:53 AM 75.0 °F - 73.0 °F 94% 30.05 in 9.0 mi Calm Calm - N/A   Clear
1:53 AM 75.0 °F - 73.9 °F 96% 30.05 in 9.0 mi Calm Calm - N/A   Scattered Clouds
2:53 AM 73.9 °F - 73.0 °F 97% 30.05 in 7.0 mi Calm Calm - N/A   Clear
3:53 AM 73.0 °F - 72.0 °F 96% 30.05 in 7.0 mi Calm Calm - N/A   Clear
4:53 AM 72.0 °F - 72.0 °F 100% 30.05 in 7.0 mi Calm Calm - N/A   Clear
5:53 AM 73.0 °F - 72.0 °F 96% 30.05 in 8.0 mi Calm Calm - N/A   Clear
6:53 AM 73.0 °F - 72.0 °F 96% 30.05 in 9.0 mi Calm Calm - N/A   Clear
7:53 AM 80.1 °F 85.8 °F 77.0 °F 90% 30.06 in 9.0 mi South 5.8 mph - N/A   Clear
8:45 AM 84.2 °F 94.1 °F 77.0 °F 79% 30.08 in 10.0 mi SSW 8.1 mph - N/A   Mostly Cloudy
8:53 AM 84.0 °F 93.7 °F 77.0 °F 79% 30.08 in 10.0 mi SSW 9.2 mph - N/A   Mostly Cloudy
9:05 AM 84.2 °F 92.3 °F 75.2 °F 74% 30.08 in 10.0 mi South 9.2 mph - N/A   Scattered Clouds
9:53 AM 84.9 °F 92.1 °F 73.9 °F 69% 30.09 in 10.0 mi South 6.9 mph - N/A   Partly Cloudy
10:53 AM 88.0 °F 95.6 °F 73.0 °F 61% 30.10 in 10.0 mi South 8.1 mph - N/A   Clear
11:53 AM 89.1 °F 94.1 °F 70.0 °F 53% 30.10 in 10.0 mi SSE 8.1 mph - N/A   Scattered Clouds
12:53 PM 90.0 °F 96.9 °F 72.0 °F 55% 30.10 in 10.0 mi SSE 9.2 mph 17.3 mph N/A   Partly Cloudy
1:53 PM 91.0 °F 98.2 °F 72.0 °F 53% 30.09 in 10.0 mi Variable 6.9 mph - N/A   Partly Cloudy
2:53 PM 91.0 °F 98.2 °F 72.0 °F 53% 30.08 in 10.0 mi South 11.5 mph 18.4 mph N/A   Partly Cloudy
3:53 PM 91.0 °F 97.6 °F 71.1 °F 52% 30.07 in 10.0 mi SSE 11.5 mph - N/A   Clear
4:53 PM 90.0 °F 96.9 °F 72.0 °F 55% 30.06 in 10.0 mi South 10.4 mph - N/A   Partly Cloudy
5:53 PM 89.1 °F 94.1 °F 70.0 °F 53% 30.03 in 10.0 mi SE 8.1 mph - N/A   Clear
6:53 PM 87.1 °F 94.5 °F 73.0 °F 63% 30.03 in 10.0 mi South 10.4 mph - N/A   Clear
7:53 PM 84.0 °F 91.2 °F 73.9 °F 72% 30.03 in 10.0 mi SSE 8.1 mph - N/A   Clear
8:53 PM 81.0 °F 86.2 °F 73.9 °F 79% 30.03 in 10.0 mi SSE 6.9 mph - N/A   Clear
9:53 PM 78.1 °F - 73.9 °F 87% 30.03 in 10.0 mi SSE 5.8 mph - N/A   Clear
10:53 PM 77.0 °F - 73.9 °F 90% 30.04 in 10.0 mi Calm Calm - N/A   Clear
11:53 PM 75.0 °F - 73.0 °F 94% 30.03 in 10.0 mi Calm Calm - N/A   Clear